Temperature
18 18 18 18 18 18 18 18 18 18 18 18 18 19 19 19 19 19 19 19 18 18 18 18 18 18 18 18 18 18 18 17 17 17 17 17 17 17 16 16 16 16 16
18 18 18 18 18 18 18 18 18 18 18 18 18 19 19 19 19 18 19 18 18 18 18 18 18 18 18 18 18 18 18 17 17 17 17 17 17 17 16 16 16 16 16
18 18 18 18 18 19 18 18 18 18 18 18 19 19 19 19 19 18 18 18 18 18 18 18 18 18 18 18 18 18 18 18 17 17 17 17 17 17 17 17 16 16 16
19 19 18 18 19 18 18 18 19 19 19 19 19 19 19 19 19 19 19 18 18 18 18 18 18 18 18 18 18 18 18 18 17 17 17 17 17 17 17 17 17 16 16
19 19 19 19 19 19 19 19 19 19 19 19 19 19 19 19 19 19 19 19 19 18 18 18 18 18 18 18 18 18 18 17 17 17 17 17 17 17 17 17 17 16 16
19 19 19 19 19 18 19 19 19 19 19 19 19 19 19 19 19 19 19 19 19 19 18 18 18 18 18 18 18 18 18 17 17 17 17 17 17 17 17 17 17 17 16
19 19 19 19 19 19 19 19 18 18 18 18 19 19 19 19 19 19 19 19 19 19 19 18 18 18 18 18 18 18 18 17 17 17 17 17 17 17 17 17 17 17 16
19 19 19 19 19 19 19 19 18 18 18 18 19 19 19 19 19 19 19 19 19 19 19 19 18 18 18 18 18 18 18 17 17 17 17 17 17 17 17 17 17 17 16
19 19 19 19 19 19 19 19 19 18 19 19 19 19 19 19 19 19 19 19 19 19 19 19 19 18 18 18 18 18 18 17 17 17 17 17 17 17 17 17 16 16 16
19 19 19 19 19 19 19 19 19 19 19 18 19 19 19 19 19 19 19 19 19 19 19 18 18 18 18 18 18 18 18 17 17 17 17 17 17 17 17 17 16 16 16
19 19 19 19 19 19 19 19 19 19 18 18 18 19 19 19 19 19 19 19 19 19 19 19 18 18 18 18 18 18 18 17 17 17 17 17 17 17 17 17 17 16 16
19 19 19 19 19 19 19 19 19 19 19 19 18 18 19 19 19 19 19 19 19 19 19 19 19 18 18 18 18 18 18 18 17 17 17 17 17 17 17 17 17 16 16
19 19 19 19 19 19 19 19 19 19 19 18 19 18 18 18 19 18 19 19 19 19 19 19 18 18 18 18 18 18 18 18 18 17 17 17 17 17 17 17 16 16 16
19 19 19 19 19 19 19 19 19 18 18 19 18 18 18 18 18 18 18 18 18 18 19 18 18 18 18 18 18 18 18 18 17 17 17 17 17 17 17 17 16 16 16
19 19 19 19 19 19 19 19 18 18 18 18 18 18 18 18 18 18 18 18 18 18 18 18 18 18 18 18 18 18 17 17 17 17 17 17 17 17 17 17 16 16 16
19 19 19 19 19 19 18 18 18 18 18 18 18 18 18 18 18 18 18 18 18 18 18 18 18 18 18 17 17 17 17 17 17 17 17 17 17 17 17 16 16 16 16
19 19 19 19 18 18 18 18 18 18 18 18 18 18 18 18 18 18 18 18 18 18 18 18 18 18 18 17 17 17 17 17 17 17 17 17 17 16 16 16 16 16 16
19 19 19 18 18 18 18 18 18 18 18 18 18 18 18 18 18 18 18 18 18 18 17 17 17 18 17 17 17 17 17 17 17 17 16 16 16 16 16 16 16 16 16
19 18 18 18 18 18 18 18 17 17 17 17 17 17 17 17 17 17 17 17 17 17 17 17 17 17 17 17 17 17 16 16 16 16 16 16 16 16 16 16 16 16 16
19 18 18 18 18 18 18 17 17 17 17 17 17 17 17 17 17 17 17 17 17 17 17 17 17 17 17 17 17 16 16 16 16 16 16 16 16 16 16 16 16 16 15
18 18 18 18 18 17 17 17 17 17 17 17 17 17 17 17 17 17 17 17 17 17 17 16 16 17 17 17 16 16 16 16 16 16 16 16 16 16 16 16 16 16 15
18 17 17 17 17 17 17 17 17 17 17 17 17 17 17 17 17 17 17 17 17 16 16 16 16 16 16 16 16 16 15 15 15 16 15 16 16 16 16 16 16 16 15
18 17 17 17 17 17 17 17 17 17 17 17 17 17 16 16 16 16 16 16 16 16 16 16 16 16 16 16 16 16 15 15 15 16 15 15 15 15 15 15 16 15 15
17 17 17 17 17 17 17 17 17 17 17 16 16 16 16 16 16 16 16 16 16 16 16 16 15 15 15 15 15 15 15 15 15 15 15 15 15 15 15 15 15 15 15
17 17 17 16 16 17 17 17 16 16 16 16 16 16 16 16 16 16 15 15 15 15 15 15 15 15 15 15 15 15 15 15 14 15 15 15 15 15 15 15 15 14 14
17 16 16 16 16 16 16 16 16 16 16 15 16 15 15 16 15 15 15 15 15 15 15 15 15 15 15 15 15 15 14 14 14 14 14 14 14 14 14 14 14 14 14
Wind_Speed
2 3 2 3 4 5 5 3 3 2 3 3 4 4 3 2 3 5 9 14 14 13 12 12 12 11 11 10 10 11 10 10 11 11 11 11 10 10 9 10 10 9 9
3 2 2 2 2 3 4 4 4 3 2 2 2 2 2 2 3 4 8 12 15 15 14 14 13 12 12 12 11 11 11 11 11 12 12 12 11 11 11 11 11 11 11
4 2 2 2 2 3 4 4 3 3 3 3 2 2 2 2 2 4 6 8 11 14 15 14 14 13 13 12 12 12 12 12 12 12 13 12 13 12 12 12 12 12 12
4 2 2 2 2 3 3 3 3 3 2 2 2 3 2 2 3 4 6 7 8 9 12 15 15 14 14 13 12 12 12 12 12 12 13 13 13 13 14 14 14 13 14
6 4 2 2 3 2 2 3 2 2 2 3 3 4 4 3 4 5 5 6 8 9 10 13 16 15 14 14 13 12 12 11 12 12 12 12 12 12 12 13 13 14 14
6 4 3 3 3 2 1 1 1 2 2 2 4 3 3 3 3 3 4 4 6 8 9 10 12 13 15 15 14 13 12 12 12 12 12 12 13 13 13 13 13 14 14
6 4 2 3 3 2 2 2 1 2 3 3 2 2 3 3 3 4 3 2 3 5 6 8 10 9 10 14 15 13 13 12 12 12 12 12 12 13 13 13 13 14 14
7 6 4 4 3 3 3 3 2 2 3 2 2 2 1 1 2 3 3 3 3 2 3 6 7 8 7 8 10 14 14 13 12 12 12 12 12 12 12 12 13 13 14
8 6 5 4 4 4 4 4 3 3 3 3 2 1 1 1 2 2 2 1 1 1 1 2 5 8 8 7 8 11 13 12 12 11 11 11 12 12 12 12 13 13 14
7 7 6 5 4 3 3 4 4 3 3 3 3 3 2 1 1 1 2 1 2 2 2 2 2 5 8 7 7 9 12 12 11 10 10 10 10 10 11 11 12 12 13
7 7 7 6 5 4 4 4 3 4 3 4 3 2 3 3 3 2 2 2 2 2 3 3 2 2 5 7 7 8 11 12 11 10 9 9 9 9 9 10 10 10 10
6 7 7 6 6 5 5 5 4 4 4 4 3 3 2 2 2 2 3 3 3 2 2 2 3 2 3 4 5 6 10 12 11 11 10 9 9 9 9 9 9 9 8
5 6 6 5 5 5 6 5 5 5 5 4 4 4 3 3 3 2 3 3 3 3 3 3 2 2 3 4 5 6 8 11 11 11 10 9 9 8 8 8 7 7 8
5 5 6 6 6 5 6 5 5 6 5 5 6 5 4 4 3 3 3 2 3 3 2 2 2 2 2 4 6 7 6 9 10 11 10 10 9 9 8 7 7 7 7
4 5 5 5 5 5 4 4 4 5 5 6 6 6 5 4 4 4 3 3 3 3 3 3 1 2 2 3 7 6 5 8 10 10 10 10 10 9 9 8 8 7 7
4 4 5 5 4 5 5 5 4 4 5 5 5 5 5 5 4 4 4 4 4 4 3 2 1 1 2 2 6 5 4 7 10 10 11 11 10 10 9 9 9 8 7
4 4 4 5 5 6 5 5 6 4 5 5 6 5 5 5 4 4 4 4 4 3 4 4 2 1 2 2 3 4 5 6 7 10 12 12 12 11 10 10 10 9 9
5 4 5 5 6 6 5 5 6 5 5 4 4 5 5 5 5 5 4 5 4 4 4 4 3 3 3 4 4 4 4 6 6 10 13 13 13 12 12 12 11 10 10
5 5 5 6 5 5 5 5 5 5 5 4 4 4 5 5 5 4 5 5 4 4 3 4 4 3 3 3 4 4 5 3 5 7 11 12 13 13 13 13 13 12 11
6 6 5 5 5 5 5 5 5 5 5 4 4 4 4 5 5 5 6 5 4 4 4 4 4 4 3 3 3 3 3 3 4 5 6 8 10 13 14 14 14 13 12
7 6 5 6 5 5 5 4 4 6 5 5 5 5 5 5 5 4 5 4 4 4 4 4 4 4 4 2 3 3 4 3 4 3 3 5 6 7 10 13 13 14 14
6 6 6 6 6 6 5 5 4 4 4 5 5 5 5 6 6 6 6 6 5 5 5 5 5 4 4 3 3 4 4 4 4 2 3 4 5 5 6 8 12 15 15
6 6 7 6 6 5 5 5 5 5 5 5 5 5 7 6 5 4 5 6 7 8 8 6 6 6 5 3 3 4 5 5 6 4 3 5 5 5 5 9 14 16 16
6 6 6 6 6 6 6 6 6 6 6 6 6 6 5 3 4 3 5 5 6 6 7 7 5 6 5 4 5 6 7 6 5 4 4 5 4 4 4 5 12 15 17
5 6 6 6 6 6 7 8 7 5 5 5 6 5 4 4 4 4 5 6 6 5 5 6 7 7 8 9 7 4 5 5 5 4 3 3 3 3 3 3 6 12 14
5 6 6 6 6 6 8 10 9 6 5 5 4 4 4 3 3 4 4 5 6 5 5 5 6 8 8 8 9 7 6 6 5 4 3 3 3 2 2 2 3 5 8
Wind_Direction
161 152 160 175 196 185 182 202 209 221 239 233 225 216 224 216 179 164 161 175 179 184 190 195 202 206 207 210 212 212 212 213 215 216 216 215 218 223 224 224 224 226 234
154 152 162 189 207 199 190 189 205 207 243 245 250 253 247 211 189 183 173 182 189 193 196 201 206 210 212 215 216 218 219 220 220 220 219 219 222 225 229 229 230 232 236
160 162 179 193 196 213 206 198 210 198 221 229 235 250 252 246 209 187 191 190 192 199 203 205 208 212 214 217 218 219 219 220 222 223 223 222 225 228 231 231 231 233 236
162 180 181 194 201 229 211 207 216 212 220 233 233 239 227 224 217 215 208 201 190 195 202 206 207 210 213 218 221 221 219 221 222 223 226 228 230 232 234 234 234 235 237
184 193 185 183 211 227 227 236 187 204 224 238 244 233 226 217 215 221 213 206 194 188 188 200 205 210 214 218 220 220 219 220 221 223 226 228 231 235 237 237 237 239 239
188 194 185 189 213 211 223 257 234 223 244 243 263 256 242 216 211 232 224 213 197 192 193 189 193 208 216 218 219 220 221 221 222 223 226 229 232 235 239 240 241 242 243
187 193 202 181 206 199 214 230 227 241 241 224 256 269 249 239 234 218 218 218 204 186 183 172 180 194 201 213 218 219 220 223 225 228 230 232 235 238 238 240 243 243 244
193 196 196 210 201 199 214 228 215 239 254 216 219 279 306 299 274 241 202 202 216 176 182 181 174 183 186 188 204 215 219 223 226 230 231 233 237 240 241 242 243 245 246
199 207 187 210 212 204 200 212 213 220 245 253 212 213 234 254 281 264 249 210 191 209 224 199 182 179 184 183 185 204 213 218 222 227 230 233 236 239 241 242 244 247 248
201 197 199 207 219 216 197 214 205 221 229 254 249 228 226 209 246 290 281 259 216 208 228 258 224 181 174 180 189 187 200 210 218 224 229 233 236 239 241 243 246 249 249
201 202 203 203 208 216 214 216 212 216 229 241 251 247 237 226 230 235 261 273 260 231 207 220 218 182 175 182 181 182 191 201 208 216 224 231 235 237 239 244 247 249 246
203 205 204 200 203 210 215 216 223 223 235 246 260 268 255 246 239 243 253 259 259 256 226 216 205 166 187 168 178 181 187 194 202 209 218 227 234 236 240 241 244 243 239
205 202 205 198 207 210 214 212 217 224 228 232 241 255 263 256 254 254 251 265 275 269 241 226 203 178 193 161 165 180 188 193 200 209 216 222 226 230 233 235 235 237 239
209 193 194 196 207 211 218 210 220 222 222 228 239 241 253 252 257 248 244 249 272 270 250 240 215 179 172 160 168 178 188 199 206 212 216 219 220 221 224 226 230 232 235
223 187 187 196 203 211 221 214 226 229 221 225 235 236 238 247 245 250 246 237 239 262 267 241 215 183 155 162 171 184 191 204 211 214 216 216 216 218 221 223 225 224 225
219 187 185 192 204 210 216 222 236 236 232 234 237 240 240 245 248 248 243 246 247 248 258 264 251 224 200 194 179 190 196 207 208 210 210 211 213 216 219 221 223 223 224
208 201 202 201 207 216 216 220 235 234 241 245 247 241 243 245 252 260 257 252 245 241 251 261 258 245 218 208 191 204 212 205 206 211 210 210 212 213 216 218 221 223 223
212 209 209 212 217 219 219 221 230 233 238 243 251 254 252 249 245 250 258 260 252 241 241 252 256 251 236 210 200 218 225 221 207 211 209 211 211 212 216 218 220 222 221
213 216 216 218 221 224 224 228 228 234 238 238 246 257 255 250 251 249 248 253 261 263 243 246 257 251 242 219 209 230 235 228 232 213 209 212 214 216 219 220 221 220 217
214 219 221 222 220 222 224 223 225 229 237 242 245 249 258 255 252 256 256 254 262 271 269 258 254 251 242 229 214 231 248 234 241 227 206 211 218 220 221 220 218 214 214
222 223 223 227 222 222 223 215 235 229 226 238 240 238 240 238 245 255 259 260 260 261 264 262 256 256 247 235 234 237 252 254 247 226 203 213 211 216 220 224 218 212 213
226 228 226 229 231 229 203 200 224 243 236 236 241 241 235 233 233 235 235 240 247 251 256 260 259 258 250 247 249 256 254 257 258 226 224 239 208 214 211 210 209 208 210
221 226 227 225 223 222 216 208 221 234 244 244 243 247 253 243 223 234 235 238 244 245 242 250 262 266 263 256 257 262 262 256 255 241 238 253 235 224 216 214 204 206 207
222 225 226 226 219 220 201 202 221 234 247 247 246 243 241 240 246 252 260 257 254 250 244 239 245 258 264 261 252 251 259 259 258 248 224 250 240 236 229 205 206 204 203
229 226 223 223 218 212 201 199 208 231 239 243 248 251 238 222 230 240 256 263 264 258 258 257 247 249 254 257 255 263 261 260 264 255 230 240 251 250 234 223 209 204 206
229 229 224 222 215 218 205 198 202 228 236 236 241 244 230 215 225 226 247 260 263 267 273 267 257 254 249 246 239 229 242 252 259 264 233 233 243 245 261 236 195 196 209
Height
1558 1559 1560 1560 1561 1562 1562 1563 1563 1564 1564 1565 1566 1567 1567 1568 1568 1568 1568 1568 1569 1569 1569 1569 1570 1570 1571 1571 1572 1573 1573 1574 1575 1575 1576 1577 1577 1578 1579 1580 1580 1581 1582
1558 1559 1559 1560 1561 1562 1562 1562 1563 1563 1564 1565 1565 1566 1566 1566 1567 1567 1567 1567 1568 1568 1568 1568 1568 1569 1569 1570 1570 1571 1571 1572 1573 1573 1574 1575 1576 1576 1577 1577 1578 1579 1580
1557 1558 1559 1559 1560 1561 1561 1562 1562 1563 1563 1564 1564 1564 1565 1565 1566 1566 1566 1566 1566 1566 1566 1567 1567 1567 1568 1568 1568 1569 1569 1570 1571 1571 1572 1573 1573 1574 1575 1575 1576 1576 1577
1556 1557 1558 1559 1559 1560 1561 1561 1562 1562 1563 1563 1563 1563 1564 1564 1564 1565 1565 1565 1565 1565 1565 1565 1565 1565 1566 1566 1566 1567 1567 1568 1569 1569 1570 1570 1571 1572 1572 1573 1573 1573 1574
1555 1556 1557 1558 1558 1559 1560 1560 1560 1561 1561 1562 1562 1562 1562 1563 1563 1563 1563 1563 1563 1563 1563 1563 1563 1563 1564 1564 1564 1565 1565 1566 1566 1567 1567 1568 1568 1569 1569 1570 1570 1570 1571
1554 1555 1556 1556 1557 1558 1558 1559 1559 1559 1560 1560 1560 1561 1561 1561 1561 1561 1561 1561 1561 1561 1561 1561 1561 1561 1561 1562 1562 1562 1563 1563 1564 1564 1565 1565 1565 1566 1566 1566 1567 1567 1568
1553 1554 1555 1555 1556 1556 1557 1557 1558 1558 1559 1559 1560 1560 1560 1559 1559 1559 1560 1560 1560 1560 1560 1560 1559 1559 1559 1559 1560 1560 1560 1560 1561 1561 1562 1562 1562 1562 1563 1563 1563 1564 1564
1552 1553 1553 1554 1554 1555 1555 1556 1556 1557 1557 1558 1558 1558 1558 1559 1558 1558 1558 1558 1559 1559 1559 1558 1558 1557 1557 1557 1557 1557 1557 1558 1558 1558 1558 1559 1559 1559 1559 1560 1560 1560 1560
1550 1551 1551 1552 1553 1553 1554 1554 1554 1555 1556 1557 1557 1558 1558 1557 1557 1557 1557 1557 1557 1557 1557 1557 1556 1555 1555 1555 1554 1555 1555 1555 1555 1555 1556 1556 1556 1556 1556 1556 1556 1556 1556
1547 1549 1549 1550 1551 1552 1552 1552 1553 1553 1554 1555 1556 1556 1557 1556 1556 1556 1556 1556 1556 1555 1555 1555 1554 1553 1552 1552 1553 1552 1552 1553 1553 1553 1553 1553 1553 1553 1553 1553 1553 1552 1553
1545 1546 1547 1548 1548 1549 1550 1550 1551 1552 1552 1553 1553 1554 1554 1554 1554 1555 1554 1554 1554 1553 1553 1552 1552 1551 1551 1550 1550 1550 1550 1550 1550 1550 1550 1550 1550 1550 1550 1550 1549 1549 1549
1542 1543 1544 1545 1546 1546 1547 1548 1549 1549 1550 1551 1551 1552 1552 1552 1552 1552 1552 1552 1551 1551 1551 1550 1550 1549 1549 1548 1548 1548 1548 1548 1548 1548 1548 1547 1547 1547 1547 1546 1546 1546 1546
1539 1540 1541 1542 1543 1543 1544 1545 1546 1547 1547 1548 1548 1549 1549 1549 1550 1550 1550 1549 1549 1549 1548 1548 1547 1547 1546 1546 1545 1545 1545 1545 1545 1545 1545 1544 1544 1544 1544 1543 1543 1543 1542
1537 1538 1538 1539 1540 1541 1542 1542 1543 1544 1544 1545 1546 1546 1546 1547 1547 1548 1548 1548 1547 1546 1546 1545 1545 1545 1544 1544 1543 1543 1542 1542 1542 1542 1542 1542 1541 1541 1541 1540 1540 1540 1539
1534 1535 1535 1536 1537 1538 1539 1539 1540 1541 1542 1542 1542 1543 1543 1544 1544 1545 1545 1545 1545 1544 1543 1543 1543 1542 1541 1541 1541 1540 1539 1539 1539 1539 1539 1539 1538 1538 1537 1537 1537 1536 1536
1531 1532 1532 1533 1534 1535 1536 1537 1538 1538 1539 1539 1539 1540 1540 1540 1541 1541 1542 1542 1542 1542 1540 1540 1540 1540 1539 1539 1539 1538 1537 1537 1536 1536 1536 1536 1535 1535 1534 1534 1534 1533 1533
1527 1528 1529 1530 1531 1531 1532 1533 1534 1535 1535 1536 1536 1536 1537 1537 1538 1538 1538 1539 1539 1539 1538 1537 1537 1537 1537 1536 1536 1535 1534 1534 1533 1533 1533 1532 1532 1531 1531 1531 1531 1530 1530
1523 1525 1526 1527 1527 1528 1529 1529 1531 1532 1532 1532 1532 1533 1533 1534 1534 1534 1535 1535 1535 1535 1535 1534 1534 1534 1534 1533 1533 1532 1531 1531 1531 1530 1529 1529 1528 1528 1528 1527 1527 1527 1527
1520 1521 1522 1523 1524 1524 1525 1526 1526 1527 1528 1528 1529 1529 1529 1530 1530 1530 1531 1531 1531 1532 1532 1531 1530 1531 1530 1530 1529 1529 1528 1528 1527 1527 1526 1525 1525 1525 1524 1524 1523 1523 1523
1515 1517 1518 1519 1519 1520 1521 1522 1523 1524 1524 1525 1525 1526 1525 1526 1526 1526 1527 1527 1528 1528 1528 1528 1527 1527 1527 1526 1526 1525 1525 1524 1524 1523 1522 1522 1521 1521 1521 1520 1520 1520 1520
1512 1513 1514 1514 1515 1517 1517 1518 1519 1520 1520 1521 1521 1521 1521 1521 1521 1522 1523 1523 1523 1523 1523 1523 1523 1523 1522 1522 1522 1522 1521 1521 1520 1520 1518 1518 1517 1517 1517 1516 1516 1516 1516
1507 1509 1510 1511 1512 1513 1514 1514 1515 1515 1516 1516 1517 1517 1517 1517 1517 1517 1518 1518 1519 1519 1518 1519 1518 1518 1518 1518 1518 1518 1518 1517 1516 1516 1515 1514 1514 1513 1513 1512 1512 1512 1512
1503 1504 1505 1507 1507 1508 1510 1510 1510 1511 1511 1512 1512 1512 1513 1513 1513 1513 1513 1513 1513 1514 1514 1514 1514 1513 1513 1513 1513 1513 1513 1512 1511 1511 1511 1509 1509 1509 1509 1508 1508 1508 1508
1498 1499 1501 1502 1503 1504 1505 1505 1506 1506 1507 1507 1508 1508 1508 1508 1508 1508 1508 1508 1508 1508 1508 1508 1508 1508 1509 1508 1508 1509 1508 1508 1507 1507 1506 1505 1504 1504 1504 1504 1504 1504 1504
1494 1495 1497 1498 1498 1499 1500 1501 1502 1502 1502 1502 1503 1503 1503 1503 1503 1504 1504 1503 1503 1502 1503 1503 1503 1503 1503 1503 1503 1503 1503 1503 1502 1502 1502 1501 1500 1500 1499 1499 1499 1499 1499
1490 1491 1492 1493 1494 1494 1495 1496 1497 1497 1497 1497 1498 1498 1498 1499 1499 1499 1498 1498 1497 1497 1497 1497 1497 1497 1497 1497 1498 1498 1498 1498 1497 1497 1497 1497 1496 1496 1494 1494 1494 1494 1493